This is the latest recevied weather packets stored in our database for station/object WB3IGR. If no packets are shown the sender has not sent any weather packets the latest 10 day(s).
| Time | Temp. | Humidity | Pressure | Rain* | Wind** | Luminosity | Snow |
|---|---|---|---|---|---|---|---|
| 1777639996 | 10° C | 72% | 1016.1 hPa | 0 mm | - | 343 W/m² | - |
| 1777639693 | 9.44° C | 73% | 1016.2 hPa | 0 mm | - | 335 W/m² | - |
| 1777639390 | 10° C | 75% | 1016.2 hPa | 0 mm | - | 304 W/m² | - |
| 1777639085 | 8.89° C | 77% | 1016.3 hPa | 0 mm | - | 282 W/m² | - |
| 1777638783 | 8.89° C | 78% | 1016.4 hPa | 0 mm | - | 272 W/m² | - |
| 1777638478 | 8.89° C | 78% | 1016.4 hPa | 0 mm | - | 274 W/m² | - |
| 1777638175 | 8.33° C | 80% | 1016.3 hPa | 0 mm | - | 235 W/m² | - |
| 1777637870 | 8.33° C | 80% | 1016.4 hPa | 0 mm | - | 230 W/m² | - |
| 1777637567 | 8.33° C | 81% | 1016.6 hPa | 0 mm | - | 209 W/m² | - |
| 1777637264 | 8.33° C | 82% | 1016.4 hPa | 0 mm | - | 197 W/m² | - |
| 1777636961 | 8.33° C | 82% | 1016.5 hPa | 0 mm | - | 185 W/m² | - |
| 1777636657 | 7.78° C | 83% | 1016.4 hPa | 0 mm | - | 167 W/m² | - |
| 1777636354 | 7.78° C | 83% | 1016.5 hPa | 0 mm | - | 156 W/m² | - |
| 1777636053 | 7.22° C | 83% | 1016.5 hPa | 0 mm | - | 141 W/m² | - |
| 1777635750 | 7.22° C | 84% | 1016.1 hPa | 0 mm | - | 126 W/m² | - |
| 1777635447 | 7.22° C | 84% | 1016.1 hPa | 0 mm | - | 115 W/m² | - |
| 1777635143 | 7.22° C | 84% | 1016.3 hPa | 0 mm | - | 99 W/m² | - |
| 1777634839 | 6.67° C | 84% | 1016.4 hPa | 0 mm | - | 91 W/m² | - |
| 1777634537 | 6.67° C | 84% | 1016.4 hPa | 0 mm | - | 45 W/m² | - |
| 1777634233 | 6.67° C | 84% | 1016.5 hPa | 0 mm | - | 42 W/m² | - |
| 1777633930 | 6.67° C | 84% | 1016.2 hPa | 0 mm | - | 38 W/m² | - |
| 1777633627 | 6.67° C | 85% | 1016.4 hPa | 0 mm | - | 36 W/m² | - |
| 1777633326 | 6.11° C | 86% | 1016.2 hPa | 0 mm | - | 33 W/m² | - |
| 1777633023 | 6.11° C | 87% | 1015.9 hPa | 0 mm | - | 33 W/m² | - |
| 1777632719 | 6.11° C | 87% | 1016.1 hPa | 0 mm | - | 32 W/m² | - |
* Rain latest hour (hover to see other rain measurements)
** Current wind speed in m/s (hover to see current wind gust speed)